Total_Precipitation_Accumulation
0.00 0.00 0.00 0.00 0.01 0.01 0.01 0.04 0.11 0.15 0.14 0.20 0.30 0.50 0.64 0.63 0.81 1.20 1.43 1.45 1.42 1.72 2.22 2.58 2.83 3.01 3.34 3.50 3.62 3.58 3.73 4.06 4.35 4.19 3.83 3.58 3.23 2.99 2.79 2.54 2.36 2.35 2.34 2.48
0.00 0.01 0.00 0.01 0.01 0.01 0.02 0.06 0.14 0.16 0.15 0.25 0.38 0.60 0.76 0.85 1.10 1.27 1.21 1.23 1.40 1.77 2.27 2.63 2.91 3.07 3.32 3.57 3.95 4.02 4.14 4.44 4.53 4.33 4.19 3.99 3.77 3.37 3.23 3.06 2.81 2.47 2.30 2.38
0.01 0.01 0.01 0.01 0.01 0.02 0.04 0.07 0.13 0.14 0.21 0.34 0.43 0.82 0.99 1.11 1.25 1.24 1.21 1.42 1.46 1.56 1.98 2.26 2.38 2.58 2.76 2.87 3.09 3.35 3.78 4.25 4.36 4.39 4.31 4.21 4.16 3.62 3.33 3.13 2.86 2.55 2.32 2.24
0.01 0.01 0.01 0.02 0.02 0.02 0.06 0.06 0.06 0.10 0.19 0.45 0.52 1.04 1.25 1.45 1.54 1.34 1.31 1.28 1.30 1.56 1.89 1.92 1.79 1.94 2.18 2.17 2.45 2.82 3.24 3.54 3.74 3.86 3.83 3.78 3.63 3.37 3.26 3.10 2.69 2.41 2.22 2.17
0.02 0.02 0.02 0.04 0.03 0.03 0.05 0.04 0.07 0.11 0.19 0.41 0.46 0.81 1.29 1.66 1.78 1.40 1.28 1.19 1.29 1.55 1.61 1.58 1.60 1.71 1.87 2.03 2.33 2.59 2.87 3.11 3.26 3.31 3.33 3.33 3.18 3.04 2.97 2.84 2.53 2.25 2.10 2.01
0.02 0.04 0.04 0.03 0.03 0.04 0.04 0.07 0.13 0.20 0.37 0.71 0.61 0.71 1.21 1.55 1.41 1.21 1.17 1.00 1.10 1.33 1.43 1.49 1.57 1.70 1.82 2.10 2.43 2.67 2.87 3.06 3.09 2.85 2.72 2.68 2.69 2.66 2.54 2.35 2.16 1.95 1.84 1.76
0.13 0.10 0.07 0.05 0.06 0.07 0.08 0.17 0.56 0.92 1.24 1.14 0.72 0.82 1.39 1.26 0.91 0.84 0.93 0.92 0.94 1.01 1.16 1.28 1.45 1.66 1.84 1.92 1.98 2.32 2.66 2.84 2.78 2.54 2.36 2.24 2.29 2.32 2.22 2.05 1.97 1.86 1.67 1.54
0.28 0.25 0.13 0.09 0.12 0.13 0.13 0.24 0.69 0.95 0.99 0.97 0.78 1.17 1.60 1.20 0.81 0.67 0.77 0.79 0.70 0.66 0.63 0.72 0.90 1.02 1.11 1.13 1.16 1.28 1.50 1.72 1.80 1.72 1.71 1.70 1.73 1.74 1.72 1.80 1.70 1.68 1.57 1.44
0.16 0.15 0.10 0.12 0.17 0.18 0.24 0.28 0.29 0.49 0.68 1.01 1.02 1.19 1.21 0.96 0.78 0.73 0.83 0.77 0.61 0.55 0.50 0.57 0.67 0.68 0.77 0.80 0.84 0.98 1.17 1.32 1.37 1.36 1.36 1.37 1.36 1.40 1.43 1.43 1.39 1.40 1.40 1.35
0.10 0.10 0.10 0.11 0.15 0.18 0.20 0.28 0.42 0.67 0.90 1.02 1.09 1.36 1.49 1.32 1.08 0.96 0.92 0.78 0.58 0.48 0.44 0.49 0.58 0.58 0.68 0.81 0.96 1.11 1.22 1.25 1.22 1.23 1.21 1.11 1.20 1.22 1.25 1.20 1.13 1.12 1.13 1.16
0.08 0.09 0.12 0.18 0.22 0.22 0.23 0.30 0.45 0.62 0.69 0.87 1.19 1.27 1.00 0.94 0.97 1.05 1.06 0.88 0.61 0.46 0.42 0.45 0.54 0.57 0.63 0.75 0.88 1.01 1.13 1.23 1.19 1.13 1.14 1.16 1.17 1.16 1.14 1.09 1.00 1.04 1.06 1.05
0.09 0.11 0.16 0.24 0.21 0.16 0.22 0.32 0.47 0.70 0.76 0.80 0.93 0.99 0.58 0.57 0.68 0.81 0.81 0.65 0.48 0.41 0.40 0.45 0.49 0.50 0.59 0.70 0.79 0.80 0.87 1.02 1.04 1.02 1.11 1.24 1.22 1.15 1.06 0.97 0.91 0.96 0.99 0.99
0.15 0.15 0.27 0.53 0.49 0.26 0.25 0.25 0.35 0.49 0.60 0.68 0.85 0.95 0.57 0.55 0.68 0.75 0.71 0.57 0.49 0.47 0.47 0.53 0.52 0.48 0.53 0.63 0.71 0.71 0.77 0.89 0.98 1.01 1.10 1.17 1.14 1.09 0.98 0.87 0.88 0.88 0.88 0.93
0.13 0.14 0.24 0.61 0.65 0.43 0.31 0.27 0.31 0.43 0.54 0.51 0.49 0.65 0.63 0.62 0.76 0.76 0.73 0.63 0.59 0.51 0.51 0.58 0.63 0.55 0.52 0.57 0.60 0.61 0.72 0.87 0.90 0.91 0.95 0.96 0.91 0.89 0.90 0.89 0.84 0.81 0.85 0.88
0.13 0.16 0.17 0.26 0.35 0.38 0.37 0.30 0.26 0.29 0.33 0.42 0.43 0.57 0.69 0.69 0.73 0.65 0.60 0.59 0.61 0.53 0.46 0.49 0.47 0.47 0.48 0.49 0.51 0.56 0.57 0.68 0.78 0.84 0.85 0.85 0.86 0.86 0.84 0.82 0.77 0.77 0.77 0.73
0.19 0.23 0.22 0.29 0.36 0.38 0.39 0.35 0.28 0.24 0.25 0.29 0.36 0.50 0.53 0.61 0.61 0.60 0.52 0.50 0.55 0.43 0.35 0.37 0.32 0.29 0.32 0.38 0.42 0.47 0.48 0.55 0.64 0.66 0.67 0.79 0.87 0.85 0.83 0.75 0.71 0.70 0.71 0.75
0.30 0.33 0.32 0.36 0.44 0.52 0.54 0.34 0.31 0.31 0.28 0.39 0.58 0.60 0.54 0.70 0.64 0.54 0.48 0.42 0.38 0.35 0.32 0.27 0.22 0.22 0.26 0.32 0.38 0.42 0.48 0.51 0.56 0.60 0.62 0.64 0.72 0.79 0.76 0.69 0.66 0.65 0.69 0.75
0.35 0.49 0.52 0.48 0.64 0.79 0.61 0.34 0.29 0.33 0.31 0.30 0.41 0.44 0.45 0.68 0.66 0.50 0.42 0.38 0.33 0.31 0.30 0.25 0.25 0.25 0.30 0.35 0.39 0.47 0.54 0.55 0.57 0.65 0.67 0.64 0.64 0.71 0.74 0.71 0.69 0.72 0.75 0.76
0.31 0.48 0.55 0.60 0.73 0.74 0.59 0.46 0.41 0.45 0.49 0.33 0.36 0.40 0.41 0.47 0.53 0.56 0.40 0.41 0.42 0.36 0.35 0.31 0.29 0.30 0.38 0.42 0.43 0.50 0.54 0.59 0.64 0.67 0.68 0.66 0.65 0.70 0.75 0.75 0.79 0.85 0.90 0.83
0.39 0.51 0.64 0.61 0.75 0.90 0.73 0.56 0.46 0.51 0.86 0.55 0.38 0.35 0.38 0.44 0.64 0.71 0.49 0.38 0.36 0.34 0.37 0.41 0.38 0.43 0.47 0.49 0.55 0.63 0.68 0.75 0.79 0.74 0.70 0.68 0.73 0.78 0.81 0.89 1.02 1.09 1.11 1.04
0.79 0.81 0.79 0.73 0.78 0.79 0.70 0.55 0.49 0.85 1.05 0.61 0.48 0.44 0.46 0.48 0.56 0.58 0.49 0.41 0.37 0.39 0.44 0.53 0.62 0.69 0.72 0.66 0.72 0.80 0.89 0.94 0.91 0.91 0.89 0.86 0.90 0.99 1.06 1.20 1.30 1.37 1.34 1.38
1.01 1.02 0.97 0.95 1.08 1.08 0.80 0.76 0.89 0.98 0.88 0.71 0.59 0.57 0.51 0.48 0.45 0.47 0.46 0.47 0.43 0.43 0.51 0.56 0.62 0.73 0.81 0.89 0.95 1.00 1.00 1.04 1.11 1.10 1.10 1.12 1.18 1.10 1.12 1.34 1.43 1.54 1.63 1.60
0.99 1.01 1.04 1.08 1.12 0.99 0.89 1.00 1.04 0.93 0.96 0.89 0.73 0.69 0.63 0.58 0.48 0.43 0.45 0.46 0.47 0.48 0.52 0.58 0.60 0.67 0.80 0.92 1.01 1.15 1.21 1.19 1.25 1.30 1.31 1.35 1.39 1.44 1.46 1.59 1.64 1.67 1.69 1.66
1.07 0.95 1.08 1.20 1.24 1.15 1.13 1.10 1.08 1.04 1.01 0.90 0.73 0.71 0.67 0.60 0.51 0.49 0.49 0.52 0.52 0.52 0.51 0.53 0.60 0.65 0.77 0.94 1.11 1.25 1.29 1.25 1.33 1.43 1.44 1.54 1.68 1.73 1.74 1.84 1.84 1.83 1.82 1.76
1.19 1.15 1.38 1.50 1.47 1.47 1.48 1.30 1.15 1.05 0.91 0.81 0.68 0.64 0.60 0.56 0.53 0.50 0.51 0.54 0.50 0.45 0.46 0.49 0.56 0.67 0.72 0.78 0.95 1.14 1.27 1.34 1.46 1.56 1.60 1.72 1.86 1.95 1.99 1.88 1.87 1.87 1.91 1.85
1.22 1.28 1.45 1.59 1.45 1.42 1.47 1.32 1.09 1.05 1.04 0.93 0.87 0.83 0.70 0.64 0.65 0.57 0.50 0.47 0.42 0.41 0.42 0.50 0.54 0.61 0.68 0.73 0.86 1.03 1.25 1.39 1.58 1.63 1.68 1.78 1.85 1.96 1.98 1.95 1.85 1.73 1.65 1.60